Location: Willingham
(52.3167°N, 0.0667°E)
Time: 16:56:46
(UTC+00:00)

USA 229 DEB - Pass Details

Date: 19 May 2025
Orbit: 872 x 1339 km, 63.4° (Epoch: 10 June)

Event Time Altitude Azimuth Distance (km) Brightness Sun altitude
Exits shadow 23:20:44 28° 172° (S) 1,718 4.2 -17.3°
Maximum altitude 23:23:30 43° 121° (ESE) 1,346 3.9 -17.3°
Drops below altitude 10° 23:29:48 10° 52° (NE) 2,894 6.4 -17.5°
Sets 23:32:43 0° 47° (NE) 3,928 7.2 -17.5°
